NOAA 1 1 04793U 70106A 22176.85697203 -.00000034 00000-0 63691-4 0 9992 2 04793 101.5559 240.4534 0031101 306.3416 103.7808 12.54005732358644 NOAA 2 (ITOS-D) 1 06235U 72082A 22176.92354719 -.00000031 00000-0 96711-4 0 9996 2 06235 101.9523 159.2096 0004521 60.5856 355.0046 12.53148335273036 NOAA 3 1 06920U 73086A 22176.93397815 -.00000051 00000-0 -39552-4 0 9990 2 06920 102.2074 158.4923 0006058 277.3016 138.7052 12.40347810201843 NOAA 4 1 07529U 74089A 22176.90276069 -.00000027 00000-0 12091-3 0 9994 2 07529 101.9125 156.5640 0009481 87.2884 327.9654 12.53158312177608 NOAA 5 1 09057U 76077A 22176.88224208 -.00000023 00000-0 16787-3 0 9998 2 09057 102.0978 144.7809 0010149 121.1085 294.9731 12.37771943 74781 TIROS N 1 11060U 78096A 22176.74150220 .00000076 00000-0 57544-4 0 9999 2 11060 98.6348 230.2656 0011724 117.3149 242.9222 14.18393298472782 NOAA 6 1 11416U 79057A 22176.91666068 .00000136 00000-0 65219-4 0 9998 2 11416 98.6632 187.7852 0009334 229.7022 130.3347 14.33765605242739 NOAA 7 1 12553U 81059A 22176.70194587 -.00000001 00000-0 22253-4 0 9998 2 12553 98.9983 221.2213 0012575 92.6193 267.6420 14.17334168118967 NOAA 8 1 13923U 83022A 22176.89991317 .00000064 00000-0 42913-4 0 9991 2 13923 98.6861 167.4106 0014991 180.4223 179.6948 14.28812581 43615 NOAA 9 1 15427U 84123A 22176.92913505 .00000044 00000-0 45194-4 0 9994 2 15427 99.0452 149.4465 0015475 138.2492 281.6556 14.16205476937811 NOAA 10 1 16969U 86073A 22176.92762267 .00000048 00000-0 36587-4 0 9999 2 16969 98.5672 162.9261 0011065 290.3821 123.2240 14.28204025862047 NOAA 11 1 19531U 88089A 22176.89672252 .00000006 00000-0 23904-4 0 9999 2 19531 98.4237 165.5152 0011714 149.0213 211.1655 14.15312295742011 NOAA 12 1 21263U 91032A 22176.91227925 .00000035 00000-0 32534-4 0 9993 2 21263 98.5132 176.4976 0012814 318.8333 41.1879 14.25996359617938 NOAA 13 1 22739U 93050A 22176.87391058 .00000067 00000-0 58226-4 0 9999 2 22739 98.5043 156.2546 0008828 326.1338 33.9270 14.12846159488246 NOAA 14 1 23455U 94089A 22176.90348678 .00000025 00000-0 34536-4 0 9994 2 23455 98.4469 203.1491 0008435 304.4687 55.5689 14.14199417417903 NOAA 15 1 25338U 98030A 22176.83896352 .00000154 00000-0 82576-4 0 9995 2 25338 98.6430 206.2648 0009144 273.4770 86.5365 14.26142684254461 NOAA 16 1 26536U 00055A 22176.89260617 .00000028 00000-0 37278-4 0 9990 2 26536 98.6358 235.5032 0011353 137.4057 222.7998 14.13331651418542 NOAA 17 1 27453U 02032A 22176.92800443 .00000039 00000-0 35544-4 0 9993 2 27453 98.6721 122.0892 0010717 245.4864 114.5199 14.25124875 40068 NOAA 18 1 28654U 05018A 22176.91749532 .00000143 00000-0 10119-3 0 9990 2 28654 98.9488 247.3468 0013280 310.2909 49.7101 14.12745976881178 NOAA 19 1 33591U 09005A 22176.91974972 .00000129 00000-0 94996-4 0 9994 2 33591 99.1469 211.2343 0014310 160.4712 199.7010 14.12580720689388 NPP 1 37849U 11061A 22176.87081545 .00000042 00000-0 40598-4 0 9992 2 37849 98.7330 115.3061 0001067 85.0618 342.8022 14.19530416552391